Location: Zagórów
(52.1631°N, 17.8841°E)
Time: 02:32:52
(UTC+02:00)

ISS - Visible Passes

Search period start: 22 May 2018 00:00
Search period end: 01 June 2018 00:00
Orbit: 402 x 407 km, 51.6° (Epoch: 22 May)

Date Brightness Start Highest point End Pass type
(mag) Time Alt. Az. Time Alt. Az. Time Alt. Az.
22 May -4.0 01:30:56 10° W 01:34:12 75° S 01:37:29 10° ESE visible
22 May -3.0 03:07:32 10° W 03:10:25 29° SSW 03:13:19 10° SSE visible
22 May -3.9 23:02:22 10° WSW 23:05:36 59° SSE 23:08:50 10° E visible
23 May -4.0 00:38:44 10° W 00:42:01 83° S 00:45:18 10° E visible
23 May -3.5 02:15:15 10° W 02:18:22 41° SSW 02:21:28 10° SE visible
23 May -1.8 03:53:07 10° WSW 03:54:12 11° SW 03:55:16 10° SSW visible
23 May -3.5 22:10:20 10° SW 22:13:28 44° SSE 22:16:37 10° E visible
23 May -4.0 23:46:32 10° W 23:49:49 83° S 23:53:06 10° E visible
24 May -3.8 01:23:00 10° W 01:26:14 56° SSW 01:27:53 25° SE visible
24 May -1.6 03:00:00 10° W 03:00:17 11° WSW 03:00:17 11° WSW visible
24 May -4.0 22:54:20 10° WSW 22:57:37 77° S 23:00:54 10° E visible
25 May -4.0 00:30:48 10° W 00:34:03 70° SSW 00:35:40 27° ESE visible
25 May -1.7 02:07:27 10° W 02:08:15 15° W 02:08:15 15° W visible
25 May -3.9 22:02:10 10° WSW 22:05:25 64° SSE 22:08:39 10° E visible
25 May -4.0 23:38:34 10° W 23:41:51 81° S 23:44:34 14° E visible
26 May -2.7 01:15:06 10° W 01:17:10 29° WSW 01:17:10 29° WSW visible
26 May -3.9 22:46:20 10° W 22:49:37 84° S 22:52:53 10° E visible
27 May -3.7 00:22:49 10° W 00:26:00 50° SSW 00:26:19 48° S visible
27 May -3.9 21:54:05 10° W 21:57:22 80° S 22:00:39 10° E visible
27 May -3.9 23:30:32 10° W 23:33:48 65° SSW 23:35:34 24° ESE visible
28 May -1.7 01:07:17 10° W 01:08:11 15° WSW 01:08:11 15° WSW visible
28 May -3.9 22:38:16 10° W 22:41:34 78° S 22:44:50 10° ESE visible
29 May -2.9 00:14:50 10° W 00:17:29 31° SW 00:17:29 31° SW visible
29 May -3.9 21:46:00 10° W 21:49:17 84° S 21:52:34 10° E visible
29 May -3.5 23:22:29 10° W 23:25:38 45° SSW 23:26:49 30° SSE visible
30 May -3.8 22:30:10 10° W 22:33:25 60° SSW 22:36:11 13° ESE visible
31 May -2.0 00:07:02 10° W 00:08:49 18° SW 00:08:49 18° SW visible
31 May -2.7 23:14:29 10° W 23:17:21 28° SSW 23:18:12 25° S visible
